Location: Aldenham
(51.6667°N, 0.3500°W)
Time: 16:51:12
(UTC+00:00)

Vanguard 2 Rocket - Pass Details

Date: 25 February 2026
Orbit: 553 x 3286 km, 32.9° (Epoch: 11 March)

Event Time Altitude Azimuth Distance (km) Brightness Sun altitude
Rises 12:29:57 0° 249° (WSW) 7,192 11.8 29.3°
Reaches altitude 10° 12:35:13 10° 243° (WSW) 6,230 11.7 29.2°
Maximum altitude 12:52:27 40° 184° (S) 3,880 12.3 28.8°
Drops below altitude 10° 13:05:41 10° 122° (ESE) 4,832 10.9 28.4°
Sets 13:09:09 0° 115° (ESE) 5,498 11.0 28.2°
